カタログに戻る

STARLINK-33974

運用中通信VLEO
NORAD 63954·PAYLOAD·🇺🇸 United States

打ち上げ May 13, 2025 から Cape Canaveral Space Force Station

Loading…

次のパス (今後24時間)

TLE

最新Source: CelesTrak SupGP

元期: Sep 14, 2026, 20:57 UTC

1 63954C 25099C   26257.87340278  .00007026  00000+0  25445-3 0  2577
2 63954  43.0025 188.2103 0001318 268.2799 139.2044 15.27576714    11

AllMySatでSTARLINK-33974をリアルタイム追跡

Download on the App Store